Terminal Aerodrome Forecast
Issued by NWS

Home | Current Version | Previous Version | Text Only | Print | Product List | Glossary Off
Versions: 1 2 3 4 5 6 7 8 9 10 11 12 13 14 15 16 17 18 19 20

000
FTUS43 KABR 280500
TAFPIR
TAF
KPIR 280528Z 2806/2906 12006KT P6SM BKN200
     FM281400 31008KT P6SM SCT150
     FM281700 32017G27KT P6SM SCT040
     FM282100 33025G35KT P6SM BKN030=

USA.gov is the U.S. government's official web portal to all federal, state and local government web resources and services.